Ashland, WV

9:12 PM EST on February 06, 2016 (GMT -0500)
APRSWXNET | | Change Station
CLOSE
Current Station
Personal Weather Station
Location: Lashmeet, WV
Elevation: 2647 ft
Nearby Weather Stations

Elev 2647 ft 37.42 °N, 81.20 °W | Updated 23 minutes ago

Clear
Clear
29 °F
Feels Like 29 °F
N
0
Wind Variable Wind from West
Gusts 0.0 mph

Today
High -- | Low -- °F
--% Chance of Precip.
Yesterday
High -- | Low -- °F
Precip. -- in
Pressure 30.28 in
Visibility 10.0 miles
Clouds Mostly Cloudy 12000 ft
Windchill 29 °F
Dew Point 25 °F
Humidity 86%
Rainfall in
Snow Depth Not available.
7:24 AM 5:55 PM
Waning Crescent, 3% visible
METAR KBLF 070152Z AUTO 26003KT 10SM BKN120 00/M09 A3022 RMK AO2 SLP253 T00001094 TSNO
Pressure 30.28 in
Visibility 10.0 miles
Clouds Mostly Cloudy 12000 ft
Windchill 29 °F
Dew Point 25 °F
Humidity 86%
Rainfall in
Snow Depth Not available.
7:24 AM 5:55 PM
Waning Crescent, 3% visible
METAR KBLF 070152Z AUTO 26003KT 10SM BKN120 00/M09 A3022 RMK AO2 SLP253 T00001094 TSNO

10-Day Weather Forecast

Almanac

Astronomy

Feb. 06, 2016 Rise Set
Actual Time
Civil Twilight
Nautical Twilight
Astronomical Twilight
Moon
Length of Visible Light
Length of Day
Tomorrow will be .
, % of the Moon is Illuminated

Today's Extremes

State Highs State Lows

Community

WunderPhotos

Upload Photos

1,891,138 photos uploaded!

WunderBlog® & News

Nearby

Air Quality

  Air Quality AQ Index Pollutant
Not available.

Snow Depth

Station Depth Elevation

Earthquake Activity

City Distance Mag. Time & Date
Minimum magnitude displayed is 2.5.

Coastal Water Temperatures

Place Temperature

Stations

Nearby Weather Stations

Station Location Temp. Windchill Dew Point Humidity Wind Precip. Elev Updated Type
                   

Watches & Warnings

There are currently no watches in effect.